GW0067 Weather Reports


time (UTC)temp
C
wind
direction
speed
KPH
gust
KPH
rain 1hr
cm
rain 24hr
cm
rain mn
cm
humidity
%
barometer
mb
20260502130507 21 25 0.0 6.4 0.00 0.00 0.00 46 1015.3
20260502123508 21 181 0.0 4.8 0.00 0.00 0.00 46 1015.6
20260502123004 21 68 0.0 6.4 0.00 0.00 0.00 46 1015.7
20260502122502 21 298 1.6 6.4 0.00 0.00 0.00 47 1015.9
20260502121506 21 238 0.0 6.4 0.00 0.00 0.00 50 1015.8
20260502114525 20 25 1.6 6.4 0.00 0.00 0.00 52 1016.4
20260502114008 20 252 0.0 1.6 0.00 0.00 0.00 53 1016.5
20260502113510 19 200 0.0 4.8 0.00 0.00 0.00 53 1016.7
20260502113020 20 45 0.0 4.8 0.00 0.00 0.00 52 1016.8
20260502112510 20 290 0.0 8.0 0.00 0.00 0.00 51 1016.7
20260502112009 19 13 1.6 8.0 0.00 0.00 0.00 53 1016.7
20260502110510 18 36 0.0 6.4 0.00 0.00 0.00 56 1017.0
20260502105510 18 113 0.0 8.0 0.00 0.00 0.00 58 1017.1
20260502105012 17 40 0.0 8.0 0.00 0.00 0.00 58 1017.2
20260502103017 17 108 0.0 6.4 0.00 0.00 0.00 60 1017.5
20260502102511 17 34 3.2 6.4 0.00 0.00 0.00 61 1017.6
20260502102011 17 134 0.0 4.8 0.00 0.00 0.00 61 1017.7
20260502101534 17 221 0.0 4.8 0.00 0.00 0.00 62 1017.7
20260502101010 17 296 0.0 4.8 0.00 0.00 0.00 63 1017.7
20260502100512 17 56 0.0 4.8 0.00 0.00 0.00 64 1017.9
20260502091522 15 256 0.0 1.6 0.00 0.00 0.00 75 1018.2
20260502091007 14 245 0.0 4.8 0.00 0.00 0.00 79 1018.1
20260502090509 13 43 0.0 4.8 0.00 0.00 0.00 79 1018.2
20260502071513 9 253 0.0 4.8 0.00 0.00 0.00 91 1018.9
20260502071008 9 250 1.6 4.8 0.00 0.00 0.00 91 1019.0
20260502070510 9 255 0.0 0.0 0.00 0.00 0.00 91 1019.0
20260502070019 9 252 0.0 0.0 0.00 0.00 0.00 91 1019.0
20260502065509 9 242 0.0 0.0 0.00 0.00 0.00 91 1019.1
20260502065013 9 217 0.0 0.0 0.00 0.00 0.00 91 1019.0
20260502064522 9 243 0.0 0.0 0.00 0.00 0.00 91 1018.9
20260502064009 9 243 0.0 0.0 0.00 0.00 0.00 91 1018.9
20260502063510 9 263 0.0 0.0 0.00 0.00 0.00 91 1018.9
20260502063029 9 262 0.0 0.0 0.00 0.00 0.00 91 1018.8
20260502062511 9 262 0.0 0.0 0.00 0.00 0.00 91 1019.0
20260502062016 8 186 0.0 0.0 0.00 0.00 0.00 91 1019.0
20260502061526 8 248 0.0 0.0 0.00 0.00 0.00 91 1018.9
20260502061011 8 252 0.0 0.0 0.00 0.00 0.00 91 1018.9
20260502060027 8 260 0.0 0.0 0.00 0.00 0.00 91 1018.9
20260502055507 8 257 0.0 0.0 0.00 0.00 0.00 91 1018.9
20260502055014 8 251 0.0 0.0 0.00 0.00 0.00 91 1019.0
20260502054519 8 251 0.0 0.0 0.00 0.00 0.00 91 1018.9
20260502054010 8 254 0.0 0.0 0.00 0.00 0.00 91 1018.9
20260502053512 8 243 0.0 0.0 0.00 0.00 0.00 91 1018.8
20260502053026 8 243 0.0 0.0 0.00 0.00 0.00 91 1018.9
20260502052510 8 186 0.0 0.0 0.00 0.00 0.00 91 1018.9
20260502052013 8 255 0.0 0.0 0.00 0.00 0.00 91 1018.9
20260502051529 8 255 0.0 0.0 0.00 0.00 0.00 91 1018.9
20260502051010 8 255 0.0 1.6 0.00 0.00 0.00 91 1018.8
20260502050511 8 250 0.0 1.6 0.00 0.00 0.00 91 1018.8
20260502045004 8 255 0.0 0.0 0.00 0.00 0.00 91 1018.7
20260502044007 8 248 0.0 4.8 0.00 0.00 0.00 91 1018.8
20260502043504 8 251 1.6 4.8 0.00 0.00 0.00 91 1018.7
20260502043010 8 255 0.0 0.0 0.00 0.00 0.00 91 1018.7
20260502042503 8 254 0.0 0.0 0.00 0.00 0.00 91 1018.7
20260502042005 8 259 0.0 0.0 0.00 0.00 0.00 91 1018.7
20260502041509 8 243 0.0 0.0 0.00 0.00 0.00 91 1018.8
20260502041004 8 257 0.0 0.0 0.00 0.00 0.00 91 1018.9
20260502040504 8 258 0.0 0.0 0.00 0.00 0.00 91 1018.9
20260502040008 8 258 0.0 0.0 0.00 0.00 0.00 91 1018.9
20260502035503 8 258 0.0 0.0 0.00 0.00 0.00 91 1018.9
20260502033013 9 259 0.0 0.0 0.00 0.00 0.00 91 1019.0
20260502032506 8 259 0.0 0.0 0.00 0.00 0.00 91 1019.0
20260502032005 8 259 0.0 0.0 0.00 0.00 0.00 91 1019.0
20260502031512 8 259 0.0 0.0 0.00 0.00 0.00 91 1019.1
20260502031005 8 259 0.0 0.0 0.00 0.00 0.00 91 1019.1
20260502030504 8 259 0.0 0.0 0.00 0.00 0.00 91 1019.1
20260502030006 8 259 0.0 0.0 0.00 0.00 0.00 91 1019.2
20260502025506 8 259 0.0 0.0 0.00 0.00 0.00 91 1019.2
20260502025003 8 259 0.0 0.0 0.00 0.00 0.00 91 1019.2
20260502024516 8 259 0.0 0.0 0.00 0.00 0.00 91 1019.3
20260502024006 8 259 0.0 0.0 0.00 0.00 0.00 91 1019.3
20260502023508 7 259 0.0 0.0 0.00 0.00 0.00 91 1019.2
20260502023018 7 259 0.0 0.0 0.00 0.00 0.00 91 1019.2
20260502021007 7 259 0.0 0.0 0.00 0.00 0.00 90 1019.3
20260502020507 7 259 0.0 0.0 0.00 0.00 0.00 90 1019.3
20260502020017 7 259 0.0 0.0 0.00 0.00 0.00 90 1019.3
20260502015507 7 259 0.0 0.0 0.00 0.00 0.00 90 1019.3
20260502015006 7 259 0.0 0.0 0.00 0.00 0.00 90 1019.3
20260502014525 8 259 0.0 0.0 0.00 0.00 0.00 90 1019.3
20260502014005 8 259 0.0 0.0 0.00 0.00 0.00 90 1019.4
20260502013505 8 259 0.0 0.0 0.00 0.00 0.00 90 1019.4
20260502013013 8 259 0.0 0.0 0.00 0.00 0.00 90 1019.4
20260502012507 8 259 0.0 0.0 0.00 0.00 0.00 90 1019.5
20260502012008 8 259 0.0 0.0 0.00 0.00 0.00 90 1019.4
20260502010507 8 259 0.0 0.0 0.00 0.00 0.00 89 1019.5
20260502010023 9 259 0.0 0.0 0.00 0.00 0.00 89 1019.6
20260502005507 9 259 0.0 0.0 0.00 0.00 0.00 89 1019.6
20260502005007 9 259 0.0 0.0 0.00 0.00 0.00 89 1019.7
20260502004520 9 259 0.0 0.0 0.00 0.00 0.00 89 1019.8
20260502004008 10 259 0.0 0.0 0.00 0.00 0.00 89 1019.8
20260502003505 10 259 0.0 0.0 0.00 0.00 0.00 89 1019.8
20260502003020 10 259 0.0 0.0 0.00 0.00 0.00 89 1019.9
20260502002507 10 259 0.0 0.0 0.00 0.00 0.00 89 1019.9
20260502002007 10 259 0.0 0.0 0.00 0.00 0.00 89 1020.1
20260502001515 10 259 0.0 0.0 0.00 0.00 0.00 89 1020.1
20260502001007 10 259 0.0 0.0 0.00 0.00 0.00 89 1020.1
20260502000507 10 259 0.0 0.0 0.00 0.00 0.00 89 1020.1
20260502000022 10 259 0.0 0.0 0.00 0.00 0.00 89 1020.2
20260501234521 10 259 0.0 0.0 0.00 0.00 0.00 89 1020.2
20260501234006 10 259 0.0 0.0 0.00 0.00 0.00 88 1020.2
20260501233509 10 259 0.0 0.0 0.00 0.00 0.00 88 1020.3
20260501233021 10 259 0.0 0.0 0.00 0.00 0.00 88 1020.3
20260501232506 10 259 0.0 0.0 0.00 0.00 0.00 88 1020.3
20260501232009 10 259 0.0 0.0 0.00 0.00 0.00 88 1020.3
20260501231522 10 259 0.0 0.0 0.00 0.00 0.00 87 1020.2
20260501231006 10 259 0.0 0.0 0.00 0.00 0.00 87 1020.3
20260501230507 10 259 0.0 0.0 0.00 0.00 0.00 87 1020.3
20260501230019 10 259 0.0 0.0 0.00 0.00 0.00 87 1020.3
20260501225509 10 259 0.0 0.0 0.00 0.00 0.00 87 1020.3
20260501225014 10 259 0.0 0.0 0.00 0.00 0.00 86 1020.4
20260501224524 10 259 0.0 0.0 0.00 0.00 0.00 86 1020.4
20260501223510 11 259 0.0 0.0 0.00 0.00 0.00 85 1020.4
20260501221524 11 259 0.0 0.0 0.00 0.00 0.00 84 1020.3
20260501220507 11 292 0.0 0.0 0.00 0.00 0.00 83 1020.2
20260501215508 11 292 0.0 0.0 0.00 0.00 0.00 82 1020.3
20260501214519 12 259 0.0 0.0 0.00 0.00 0.00 81 1020.2
20260501210507 12 232 0.0 1.6 0.00 0.00 0.00 80 1020.2
20260501210022 13 289 0.0 1.6 0.00 0.00 0.00 79 1020.2
20260501205507 13 290 0.0 0.0 0.00 0.00 0.00 78 1020.1
20260501204523 13 289 0.0 0.0 0.00 0.00 0.00 77 1020.2
20260501204009 13 289 0.0 0.0 0.00 0.00 0.00 77 1020.2
20260501203507 14 290 0.0 3.2 0.00 0.00 0.00 77 1020.1
20260501203018 14 289 0.0 3.2 0.00 0.00 0.00 77 1020.1
20260501202509 14 191 0.0 3.2 0.00 0.00 0.00 77 1020.1
20260501202015 14 248 0.0 0.0 0.00 0.00 0.00 77 1020.1
20260501201524 14 246 0.0 0.0 0.00 0.00 0.00 77 1020.1
20260501201012 14 255 0.0 0.0 0.00 0.00 0.00 77 1020.1
20260501200508 14 255 0.0 0.0 0.00 0.00 0.00 76 1020.1
20260501200024 15 255 0.0 0.0 0.00 0.00 0.00 75 1020.1
20260501195509 15 255 0.0 0.0 0.00 0.00 0.00 74 1020.1
20260501195008 15 255 0.0 0.0 0.00 0.00 0.00 73 1020.0
20260501194522 15 255 0.0 0.0 0.00 0.00 0.00 73 1019.9
20260501194010 15 255 0.0 0.0 0.00 0.00 0.00 72 1019.8
20260501193506 15 255 0.0 0.0 0.00 0.00 0.00 71 1019.8
20260501193017 16 255 0.0 0.0 0.00 0.00 0.00 70 1019.7
20260501192507 16 255 0.0 0.0 0.00 0.00 0.00 70 1019.7
20260501192010 16 255 0.0 0.0 0.00 0.00 0.00 69 1019.7
20260501191522 16 255 0.0 0.0 0.00 0.00 0.00 69 1019.7
20260501191007 16 255 0.0 0.0 0.00 0.00 0.00 68 1019.7
20260501190513 17 255 0.0 1.6 0.00 0.00 0.00 67 1019.7
20260501190021 17 330 0.0 1.6 0.00 0.00 0.00 66 1019.7
20260501185507 17 229 0.0 4.8 0.00 0.00 0.00 66 1019.6
20260501185013 17 244 0.0 4.8 0.00 0.00 0.00 65 1019.6
20260501184523 18 216 0.0 4.8 0.00 0.00 0.00 64 1019.6
20260501184008 18 257 0.0 4.8 0.00 0.00 0.00 64 1019.7
20260501183511 18 258 0.0 3.2 0.00 0.00 0.00 66 1019.7
20260501183028 18 254 0.0 3.2 0.00 0.00 0.00 66 1019.6
20260501182509 18 253 0.0 6.4 0.00 0.00 0.00 67 1019.6
20260501182011 18 254 1.6 6.4 0.00 0.00 0.00 67 1019.6
20260501181518 18 257 0.0 3.2 0.00 0.00 0.00 66 1019.6
20260501181007 18 247 0.0 3.2 0.00 0.00 0.00 65 1019.6
20260501180508 18 260 0.0 6.4 0.00 0.00 0.00 65 1019.5
20260501180022 18 266 1.6 6.4 0.00 0.00 0.00 65 1019.5
20260501175511 18 226 0.0 8.0 0.00 0.00 0.00 65 1019.6
20260501175011 18 253 1.6 9.7 0.00 0.00 0.00 65 1019.5
20260501174534 18 241 3.2 14.5 0.00 0.00 0.00 65 1019.5
20260501174008 18 250 4.8 14.5 0.00 0.00 0.00 65 1019.5
20260501173511 18 212 4.8 11.3 0.00 0.00 0.00 65 1019.5
20260501173026 18 251 1.6 9.7 0.00 0.00 0.00 65 1019.6
20260501172509 18 268 1.6 9.7 0.00 0.00 0.00 65 1019.6
20260501172012 18 314 3.2 9.7 0.00 0.00 0.00 65 1019.6
20260501171525 19 231 3.2 9.7 0.00 0.00 0.00 65 1019.7
20260501171008 19 262 1.6 9.7 0.00 0.00 0.00 65 1019.7
20260501170513 19 262 3.2 9.7 0.00 0.00 0.00 65 1019.6
20260501170024 20 210 1.6 11.3 0.00 0.00 0.00 64 1019.5
20260501165510 20 247 1.6 11.3 0.00 0.00 0.00 65 1019.5
20260501165004 20 263 0.0 9.7 0.00 0.00 0.00 64 1019.6
20260501164507 20 252 3.2 9.7 0.00 0.00 0.00 63 1019.6
20260501164003 20 285 3.2 12.9 0.00 0.00 0.00 63 1019.6
20260501163502 20 302 4.8 12.9 0.00 0.00 0.00 63 1019.6
20260501163008 21 229 1.6 6.4 0.00 0.00 0.00 62 1019.6
20260501162505 21 264 3.2 8.0 0.00 0.00 0.00 63 1019.6
20260501162011 21 289 1.6 8.0 0.00 0.00 0.00 62 1019.6
20260501161525 21 231 1.6 8.0 0.00 0.00 0.00 63 1019.6
20260501161012 21 299 1.6 11.3 0.00 0.00 0.00 64 1019.6
20260501160507 20 192 4.8 14.5 0.00 0.00 0.00 64 1019.6
20260501160022 21 215 6.4 14.5 0.00 0.00 0.00 63 1019.7
20260501155510 21 252 1.6 8.0 0.00 0.00 0.00 64 1019.6
20260501155002 21 226 3.2 14.5 0.00 0.00 0.00 64 1019.6
20260501154531 21 251 4.8 17.7 0.00 0.00 0.00 64 1019.6
20260501154009 21 242 4.8 17.7 0.00 0.00 0.00 62 1019.6
20260501153505 21 245 8.0 14.5 0.00 0.00 0.00 63 1019.6
20260501153017 21 236 1.6 11.3 0.00 0.00 0.00 62 1019.6
20260501152511 21 240 4.8 11.3 0.00 0.00 0.00 62 1019.6
20260501152012 21 251 1.6 9.7 0.00 0.00 0.00 61 1019.7
20260501151511 21 181 0.0 9.7 0.00 0.00 0.00 60 1019.7
20260501151014 21 236 1.6 11.3 0.00 0.00 0.00 61 1019.7
20260501150509 21 250 3.2 11.3 0.00 0.00 0.00 61 1019.7
20260501150032 21 236 4.8 11.3 0.00 0.00 0.00 60 1019.7
20260501145515 21 240 4.8 11.3 0.00 0.00 0.00 60 1019.8
20260501145011 21 245 6.4 12.9 0.00 0.00 0.00 60 1019.7
20260501144528 21 268 6.4 12.9 0.00 0.00 0.00 60 1019.8
20260501144011 21 245 1.6 12.9 0.00 0.00 0.00 60 1019.8
20260501143509 21 226 6.4 12.9 0.00 0.00 0.00 59 1019.7
20260501143029 22 253 3.2 12.9 0.00 0.00 0.00 58 1019.7